Weather reports worldwide

Advertisment
Berus, Germany (10704): temperature & dewpoint: 06.11.2019 07:00:00 - 12.11.2019 07:00:00 (CET)Berus, Germany (10704): temperature 5cm & temperature -5cm: 06.11.2019 07:00:00 - 12.11.2019 07:00:00 (CET)Berus, Germany (10704): temperature -20cm & temperature -100cm: 06.11.2019 07:00:00 - 12.11.2019 07:00:00 (CET)Berus, Germany (10704): wind speed & gusts: 06.11.2019 07:00:00 - 12.11.2019 07:00:00 (CET)Berus, Germany (10704): wind direction: 06.11.2019 07:00:00 - 12.11.2019 07:00:00 (CET)Berus, Germany (10704): reduced air pressure: 06.11.2019 07:00:00 - 12.11.2019 07:00:00 (CET)Berus, Germany (10704): visibility: 06.11.2019 07:00:00 - 12.11.2019 07:00:00 (CET)Berus, Germany (10704): sunshine duration: 06.11.2019 07:00:00 - 12.11.2019 07:00:00 (CET)Berus, Germany (10704): precipitation: 06.11.2019 07:00:00 - 12.11.2019 07:00:00 (CET)
Date & Time tt [°C] td [°C] tt 5cm [°C] tt -5cm [°C] tt -20cm [°C] tt -100cm [°C] ff [km/h] ff [kn] fx [km/h] fx [kn] dd ppp [hPa] vv [km] sd [min] rr [mm]
12.11.2019 07:00:00 3,1 2,2 3,0 3,9 5,6 11,2 24 13 42 23 SSW 1006,9 31 0 0,0
12.11.2019 06:00:00 3,1 2,3 3,0 3,9 5,6 11,2 22 12 41 22 SSW 1007,3 25 0 0,0
12.11.2019 05:00:00 3,2 2,0 3,0 4,0 5,7 11,2 27 14 39 21 SW 1007,8 32 0 0,0
12.11.2019 04:00:00 3,3 2,5 3,1 4,0 5,7 11,2 24 13 41 22 SW 1008,1 27 0 0,0
12.11.2019 03:00:00 3,3 2,5 3,2 4,0 5,7 11,2 23 12 42 23 SW 1008,3 22 0 0,0
12.11.2019 02:00:00 3,5 2,8 3,3 3,8 5,8 11,2 22 12 36 19 SW 1008,1 20 0 0,0
12.11.2019 01:00:00 2,7 2,3 2,7 3,3 5,9 11,2 15 8 23 13 SW 1008,3 21 0 0,0
12.11.2019 00:00:00 2,5 2,2 1,7 3,8 6,0 11,2 18 10 29 16 SW 1008,0 8 0 0,0
11.11.2019 23:00:00 3,9 3,6 3,9 4,5 6,0 11,3 14 7 29 16 SW 1007,4 15 0 0,0
11.11.2019 22:00:00 4,0 3,7 4,0 4,6 6,1 11,3 21 11 32 18 SW 1006,8 12 0 0,2
11.11.2019 21:00:00 3,9 3,4 3,9 4,7 6,1 11,3 21 11 35 19 SW 1006,5 14 0 0,7
11.11.2019 20:00:00 3,5 3,0 3,5 4,7 6,2 11,3 22 12 40 22 SW 1006,2 11 0 0,4
11.11.2019 19:00:00 3,6 3,1 3,6 4,9 6,2 11,3 25 13 36 19 SW 1006,3 10 0 0,8
11.11.2019 18:00:00 3,9 2,7 3,6 5,1 6,2 11,3 26 14 38 20 SSW 1005,8 16 0 0,0
11.11.2019 17:00:00 4,2 2,4 4,0 5,6 6,2 11,3 22 12 35 19 S 1005,6 31 0 0,0
11.11.2019 16:00:00 4,1 2,2 4,1 6,1 6,0 11,3 22 12 36 19 S 1006,2 36 0 0,0
11.11.2019 15:00:00 4,3 2,3 4,6 6,7 5,8 11,4 22 12 31 17 S 1006,8 39 7 0,0
11.11.2019 14:00:00 4,3 1,8 5,5 7,1 5,6 11,4 19 10 28 15 S 1007,8 46 37 0,0
11.11.2019 13:00:00 3,4 2,4 4,6 6,2 5,4 11,4 18 10 27 15 SSW 1009,1 20 4 0,0
11.11.2019 12:00:00 2,6 2,1 3,4 5,1 5,3 11,4 14 8 22 12 S 1010,2 9 0 0,0
11.11.2019 11:00:00 2,0 1,8 2,7 4,2 5,3 11,4 12 6 19 10 S 1011,3 0,2 0 0,0
11.11.2019 10:00:00 1,7 1,5 2,2 3,9 5,3 11,4 14 8 21 12 S 1012,3 0,1 0 0,0
11.11.2019 09:00:00 1,3 1,2 1,8 3,4 5,3 11,4 11 6 18 10 S 1013,0 0,1 0 0,0
11.11.2019 08:00:00 0,7 0,5 1,1 3,1 5,3 11,5 9 5 14 8 SE 1013,5 0,1 0 0,0
11.11.2019 07:00:00 0,4 0,4 0,7 3,1 5,4 11,5 8 5 18 10 SE 1014,2 0,1 0 0,0
11.11.2019 06:00:00 0,4 0,4 0,8 3,2 5,4 11,5 6 3 11 6 ESE 1015,0 0,1 0 0,0
11.11.2019 05:00:00 0,6 0,5 1,0 3,3 5,5 11,5 5 3 11 6 SE 1015,6 0,1 0 0,0
11.11.2019 04:00:00 0,6 0,6 1,0 3,3 5,5 11,5 5 3 13 7 E 1015,9 0,1 0 0,0
11.11.2019 03:00:00 0,4 0,3 0,8 3,4 5,6 11,5 6 3 13 7 E 1016,0 0,1 0 0,0
11.11.2019 02:00:00 0,5 0,4 1,0 3,5 5,7 11,5 7 4 13 7 E 1016,0 0,1 0 0,0
11.11.2019 01:00:00 0,7 0,7 1,1 3,6 5,7 11,5 4 2 13 7 ESE 1016,7 0,1 0 0,0
11.11.2019 00:00:00 1,1 1,1 1,4 3,8 5,7 11,6 7 4 14 8 E 1016,7 0,1 0 0,0
10.11.2019 23:00:00 1,5 1,5 1,9 3,9 5,8 11,6 6 4 13 7 E 1017,0 0,1 0 0,0
10.11.2019 22:00:00 1,6 1,6 2,1 3,9 5,8 11,6 6 3 14 7 ENE 1017,2 0,1 0 0,0
10.11.2019 21:00:00 1,7 1,7 2,0 3,8 5,9 11,6 9 5 14 8 NE 1016,8 0,1 0 0,0
10.11.2019 20:00:00 1,6 1,6 1,9 3,8 6,0 11,6 8 5 12 6 NE 1017,0 0,1 0 0,0
10.11.2019 19:00:00 1,5 1,4 1,6 3,8 6,1 11,6 4 2 10 5 ESE 1016,8 0,1 0 0,0
10.11.2019 18:00:00 2,4 2,0 0,5 4,1 6,2 11,6 6 4 9 5 E 1016,4 1,5 0 0,0
10.11.2019 17:00:00 3,2 2,7 1,1 5,2 6,2 11,6 4 2 8 4 ENE 1015,3 7 21 0,0
10.11.2019 16:00:00 4,0 2,7 3,5 6,5 6,0 11,7 3 1 9 5 S 1014,7 16 25 0,0
10.11.2019 15:00:00 3,4 2,7 4,6 7,5 5,6 11,7 3 1 16 9 S 1013,9 4,3 2 0,0
10.11.2019 14:00:00 2,9 2,6 6,1 7,2 5,3 11,7 9 5 14 8 NE 1013,6 0,3 0 0,0
10.11.2019 13:00:00 2,1 1,9 4,5 6,3 5,0 11,7 8 5 15 8 ENE 1013,6 0,1 0 0,0
10.11.2019 12:00:00 1,6 1,5 4,2 5,2 4,8 11,7 11 6 15 8 NE 1013,5 0,1 0 0,0
10.11.2019 11:00:00 0,1 0,0 2,4 3,7 4,7 11,7 11 6 17 9 NE 1013,2 0,1 0 0,0
10.11.2019 10:00:00 -0,4 -0,4 0,6 2,8 4,7 11,7 7 4 18 10 NE 1012,6 0,1 0 0,0
10.11.2019 09:00:00 -0,7 -0,9 0,0 1,6 4,8 11,7 14 8 20 11 NE 1011,8 0,1 0 0,0
10.11.2019 08:00:00 -0,9 -1,2 -1,0 1,2 4,9 11,7 14 8 18 10 NNE 1011,1 0,2 0 0,0
10.11.2019 07:00:00 -0,9 -1,1 -0,7 1,4 5,0 11,8 12 7 16 8 NNE 1010,5 0,1 0 0,0
10.11.2019 06:00:00 -0,7 -0,9 -0,6 1,4 5,1 11,8 12 6 17 9 NE 1010,0 0,1 0 0,0
10.11.2019 05:00:00 -0,7 -0,8 -0,8 1,4 5,2 11,8 8 4 14 7 NE 1009,4 0,2 0 0,0
10.11.2019 04:00:00 -0,7 -0,7 -0,8 1,5 5,4 11,8 9 5 12 6 NNE 1009,2 0,1 0 0,0
10.11.2019 03:00:00 -0,6 -0,6 -0,6 1,5 5,5 11,8 8 4 13 7 NE 1009,5 0,1 0 0,0
10.11.2019 02:00:00 -0,1 -0,2 -0,3 1,6 5,7 11,8 8 4 12 6 NE 1009,3 0,1 0 0,0
10.11.2019 01:00:00 0,6 0,4 -0,1 1,8 5,9 11,8 8 4 13 7 NE 1009,4 0,2 0 0,0
10.11.2019 00:00:00 0,4 -0,1 -0,6 1,7 6,1 11,8 7 4 10 5 NE 1009,6 0,1 0 0,0
09.11.2019 23:00:00 2,0 1,4 0,2 2,1 6,3 11,8 6 4 13 7 E 1009,4 10 0 0,0
09.11.2019 22:00:00 2,7 1,7 1,3 2,4 6,5 11,8 8 4 11 6 SE 1009,6 15 0 0,0
09.11.2019 21:00:00 2,7 2,2 0,9 2,7 6,8 11,9 8 4 10 5 SSE 1009,9 7 0 0,0
09.11.2019 20:00:00 3,0 2,3 0,9 3,3 7,0 11,9 4 2 10 5 ESE 1010,0 10 0 0,0
09.11.2019 19:00:00 2,4 1,8 0,6 4,0 7,1 11,9 7 4 13 7 W 1010,3 13 0 0,0
09.11.2019 18:00:00 2,7 2,1 1,4 5,0 7,2 11,9 11 6 14 8 WSW 1010,4 14 0 0,0
09.11.2019 17:00:00 3,9 2,8 3,3 6,4 7,2 11,9 10 5 27 15 SW 1010,3 32 12 0,2
09.11.2019 16:00:00 5,1 3,5 5,0 7,0 7,1 11,9 8 5 16 9 SW 1010,2 16 0 0,0
09.11.2019 15:00:00 5,5 3,2 6,1 7,2 6,9 11,9 10 6 25 13 SW 1010,6 35 0 0,0
09.11.2019 14:00:00 5,0 2,9 5,3 7,4 6,7 11,9 12 7 25 13 SSW 1011,1 39 0 0,0
09.11.2019 13:00:00 4,6 2,5 4,8 7,1 6,5 11,9 16 9 25 13 SW 1011,5 36 1 0,0
09.11.2019 12:00:00 3,9 2,6 4,6 6,4 6,4 11,9 16 8 24 13 WSW 1012,0 27 0 0,0
09.11.2019 11:00:00 3,1 2,9 3,9 5,5 6,3 11,9 14 8 27 14 SW 1012,4 0,4 0 0,0
09.11.2019 10:00:00 3,0 2,7 3,6 5,0 6,2 12,0 16 9 24 13 WSW 1012,1 0,2 0 0,0
09.11.2019 09:00:00 2,9 2,8 3,5 4,0 6,3 12,0 13 7 22 12 WSW 1012,1 0,3 0 0,0
09.11.2019 08:00:00 2,4 2,3 2,6 3,4 6,4 12,0 13 7 27 15 W 1012,1 0,2 0 0,0
09.11.2019 07:00:00 2,4 2,0 2,2 2,6 6,5 12,0 15 8 24 13 W 1011,7 8 0 0,0
09.11.2019 06:00:00 2,5 2,0 1,5 3,0 6,7 12,0 12 7 21 12 W 1011,4 15 0 0,0
09.11.2019 05:00:00 2,7 1,9 1,1 3,4 6,9 12,0 8 4 16 9 W 1011,1 20 0 0,0
09.11.2019 04:00:00 3,5 2,4 2,3 3,4 7,0 12,0 11 6 21 11 WNW 1010,7 22 0 0,0
09.11.2019 03:00:00 3,6 2,7 2,3 3,6 7,2 12,0 10 6 18 10 WNW 1010,3 20 0 0,0
09.11.2019 02:00:00 3,7 2,9 2,3 4,0 7,4 12,0 10 5 16 9 W 1010,2 15 0 0,0
09.11.2019 01:00:00 4,9 3,5 3,4 4,4 7,5 12,0 10 5 17 9 WNW 1009,9 23 0 0,0
09.11.2019 00:00:00 5,1 3,6 3,6 4,6 7,7 12,0 11 6 16 9 W 1009,6 30 0 0,0
08.11.2019 23:00:00 5,4 3,9 3,8 5,0 7,9 12,1 12 6 18 10 WNW 1009,2 29 0 0,0
08.11.2019 22:00:00 5,4 4,1 4,0 5,2 8,1 12,1 13 7 19 11 WNW 1009,1 28 0 0,0
08.11.2019 21:00:00 5,7 4,5 4,1 5,9 8,2 12,1 6 3 10 5 WNW 1008,6 29 0 0,0
08.11.2019 20:00:00 5,8 4,1 4,1 6,2 8,3 12,1 4 2 5 3 S 1008,3 34 0 0,0
08.11.2019 19:00:00 6,2 3,7 3,1 6,9 8,4 12,1 3 1 8 4 ENE 1007,8 51 0 0,0
08.11.2019 18:00:00 6,5 4,0 5,6 7,7 8,5 12,1 6 3 8 5 WNW 1007,4 47 0 0,0
08.11.2019 17:00:00 6,7 4,0 4,7 8,4 8,4 12,1 2 1 5 3 NNW 1006,8 40 0 0,0
08.11.2019 16:00:00 7,4 4,2 7,2 9,3 8,2 12,1 3 2 9 5 E 1006,3 43 0 0,0
08.11.2019 15:00:00 7,7 3,3 8,0 9,7 8,0 12,1 3 1 10 5 NE 1005,7 59 0 0,0
08.11.2019 14:00:00 7,9 4,0 9,5 10,1 7,6 12,1 5 3 8 4 ENE 1005,4 48 0 0,0
08.11.2019 13:00:00 7,4 4,1 8,2 9,8 7,3 12,1 3 2 9 5 NNW 1005,5 39 42 0,0
08.11.2019 12:00:00 6,5 3,6 9,8 9,0 7,0 12,1 6 3 12 6 NE 1005,8 41 60 0,0
08.11.2019 11:00:00 5,1 3,1 7,5 7,5 6,8 12,1 11 6 16 9 NE 1006,3 31 39 0,0
08.11.2019 10:00:00 4,3 3,2 5,0 5,8 6,8 12,2 8 4 10 6 NE 1006,0 25 35 0,0
08.11.2019 09:00:00 3,6 2,8 4,0 4,7 6,8 12,2 6 4 10 5 NE 1006,2 21 4 0,0
08.11.2019 08:00:00 3,5 2,9 3,2 4,5 6,9 12,2 6 3 8 4 NE 1006,0 18 0 0,0
08.11.2019 07:00:00 3,6 2,7 3,3 4,4 6,9 12,2 6 4 12 6 NE 1005,5 24 0 0,0
08.11.2019 06:00:00 3,6 2,7 3,0 4,4 6,9 12,2 6 3 10 5 NE 1005,3 29 0 0,0
08.11.2019 05:00:00 3,7 3,1 3,6 4,5 7,0 12,2 7 4 11 6 NE 1005,3 18 0 0,0
08.11.2019 04:00:00 3,9 2,8 3,5 4,3 7,0 12,2 8 4 11 6 ENE 1005,2 29 0 0,0
08.11.2019 03:00:00 4,1 2,9 3,3 4,1 7,1 12,2 6 3 14 8 ESE 1005,2 32 0 0,0
08.11.2019 02:00:00 4,1 3,1 3,5 4,1 7,3 12,2 6 3 17 9 SE 1005,7 31 0 0,0
08.11.2019 01:00:00 3,8 3,3 3,3 3,5 7,4 12,2 12 6 22 12 S 1005,8 14 0 0,0
08.11.2019 00:00:00 3,2 2,8 1,9 3,6 7,7 12,2 12 7 21 12 SSW 1005,7 11 0 0,0
07.11.2019 23:00:00 3,8 2,6 2,5 3,8 7,9 12,2 11 6 16 8 S 1005,6 31 0 0,0
07.11.2019 22:00:00 3,7 2,3 2,0 4,1 8,1 12,2 15 8 18 10 SW 1005,1 45 0 0,0
07.11.2019 21:00:00 3,8 2,5 2,0 4,6 8,3 12,2 12 7 21 11 SW 1005,1 40 0 0,0
07.11.2019 20:00:00 4,4 3,1 2,6 5,0 8,6 12,2 13 7 23 12 SW 1004,8 43 0 0,0
07.11.2019 19:00:00 5,2 3,4 3,8 5,6 8,7 12,2 19 10 26 14 SSW 1004,2 48 0 0,0
07.11.2019 18:00:00 5,4 4,0 4,1 6,4 8,9 12,2 16 9 23 12 SW 1003,6 50 0 0,0
07.11.2019 17:00:00 6,5 4,7 5,4 7,4 8,9 12,2 18 10 46 25 SW 1002,6 53 34 0,0
07.11.2019 16:00:00 7,6 4,7 6,4 8,4 8,8 12,2 32 18 48 26 SW 1001,2 43 54 0,0
07.11.2019 15:00:00 7,6 6,3 8,3 8,6 8,8 12,3 28 15 47 25 SW 1000,7 58 11 1,0
07.11.2019 14:00:00 7,7 6,3 7,5 8,6 8,7 12,3 27 15 43 23 SW 999,9 6 0 0,1
07.11.2019 13:00:00 7,5 6,7 7,6 7,9 8,7 12,3 26 14 45 24 SW 999,1 33 0 0,1
07.11.2019 12:00:00 6,5 6,1 6,7 7,5 8,7 12,3 29 16 46 25 SSW 998,7 5 0 0,6
07.11.2019 11:00:00 6,1 5,6 6,2 7,4 8,8 12,3 24 13 43 23 S 998,7 6 0 1,9
07.11.2019 10:00:00 6,5 5,2 6,2 7,5 8,8 12,3 23 12 37 20 S 999,1 8 0 0,8
07.11.2019 09:00:00 6,3 5,1 6,1 7,2 8,9 12,3 15 8 27 15 S 999,5 16 0 0,2
07.11.2019 08:00:00 6,2 5,1 5,8 7,2 8,9 12,3 12 6 29 16 S 999,7 40 0 0,0
07.11.2019 07:00:00 6,6 5,7 6,4 7,4 9,0 12,3 14 8 29 16 S 1000,1 22 0 0,0
07.11.2019 06:00:00 6,9 6,2 6,7 7,6 9,0 12,3 19 10 31 17 S 1000,8 14 0 0,0
07.11.2019 05:00:00 6,9 6,1 6,5 7,7 9,1 12,3 17 9 27 15 SSW 1001,4 14 0 0,0
07.11.2019 04:00:00 7,0 6,3 6,9 7,7 9,1 12,3 17 9 24 13 S 1001,9 12 0 0,0
07.11.2019 03:00:00 6,9 6,5 6,8 7,8 9,2 12,3 15 8 24 13 SSW 1002,8 7 0 0,0
07.11.2019 02:00:00 6,9 6,5 6,9 7,9 9,2 12,3 16 8 24 13 SSW 1003,1 5 0 0,0
07.11.2019 01:00:00 6,9 6,4 6,9 8,0 9,3 12,3 13 7 19 11 SSW 1003,8 9 0 0,0
07.11.2019 00:00:00 7,0 6,7 7,0 8,1 9,4 12,3 14 8 23 12 SW 1004,5 7 0 0,0
06.11.2019 23:00:00 7,1 6,9 7,2 8,1 9,4 12,3 15 8 29 16 SW 1004,8 3,1 0 0,3
06.11.2019 22:00:00 7,1 6,6 7,0 8,2 9,5 12,3 19 10 35 19 SW 1005,0 7 0 0,0
06.11.2019 21:00:00 7,4 6,9 7,3 8,5 9,6 12,3 21 11 31 17 SW 1004,8 9 0 0,0
06.11.2019 20:00:00 7,6 7,1 7,4 8,7 9,6 12,3 18 10 29 16 SW 1004,7 10 0 0,6
06.11.2019 19:00:00 7,7 7,2 7,7 8,9 9,6 12,3 21 12 30 16 SW 1004,7 12 0 0,0
06.11.2019 18:00:00 7,8 7,4 7,8 9,1 9,6 12,3 21 12 29 16 SW 1004,6 18 0 0,1
06.11.2019 17:00:00 7,8 7,4 7,9 9,5 9,6 12,3 15 8 22 12 SW 1004,5 15 0 0,1
06.11.2019 16:00:00 8,5 6,9 8,4 10,0 9,5 12,4 13 7 31 17 SW 1004,5 46 3 0,0
06.11.2019 15:00:00 9,0 6,7 9,4 10,2 9,3 12,4 16 9 28 15 WSW 1004,4 55 3 0,0
06.11.2019 14:00:00 8,9 7,0 9,1 10,5 9,2 12,4 15 8 26 14 SW 1004,5 51 1 0,0
06.11.2019 13:00:00 8,7 7,0 8,6 10,1 9,0 12,4 13 7 24 13 SW 1004,4 40 2 0,0
06.11.2019 12:00:00 8,0 6,7 8,0 9,3 8,9 12,4 13 7 23 12 WSW 1004,8 25 1 0,0
06.11.2019 11:00:00 7,9 7,0 8,3 8,7 8,8 12,4 15 8 23 12 WSW 1004,8 17 0 0,0
06.11.2019 10:00:00 7,2 6,7 7,3 8,1 8,8 12,4 15 8 25 13 WSW 1004,6 10 0 0,0
06.11.2019 09:00:00 6,8 6,5 6,9 7,6 8,8 12,4 13 7 21 11 WSW 1004,2 6 0 0,0
06.11.2019 08:00:00 6,6 6,3 6,6 7,4 8,9 12,4 11 6 17 9 SW 1003,7 0,3 0 0,0
06.11.2019 07:00:00 6,5 6,2 6,4 7,3 8,9 12,4 13 7 20 11 WSW 1002,9 7 0 0,0

tt = temperature
td = dewpoint
tt 5cm = temperature 5cm
tt -5cm = temperature -5cm
tt -20cm = temperature -20cm
tt -100cm = temperature -100cm
ff = wind speed
fx = gusts
dd = wind direction
ppp = reduced air pressure
vv = visibility
sd = sunshine duration
rr = precipitation

Next stations